Hourly Weather Roundup
Issued by NWS Central Illinois

Home | Current Version | Previous Version | Text Only | Print | Product List | Glossary On
Versions: 1 2 3 4 5 6 7 8 9 10 11 12 13 14 15 16 17 18 19 20 21 22 23 24 25 26 27 28 29 30 31 32 33 34 35 36 37 38 39 40 41 42 43 44 45 46 47 48 49 50
000
NZUS43 KILX 021310
HWRILX

AREA WEATHER ROUNDUP
NATIONAL WEATHER SERVICE, LINCOLN IL
800 AM CDT SUN AUG 02 2015


CITY           SKY/WX    TMP DP  RH WIND       PRES   REMARKS
BLOOMINGTON    SUNNY     73  69  87 SW13      29.95R
CHAMPAIGN      SUNNY     72  65  78 SW8       29.95S
DANVILLE       SUNNY     70  65  84 SW6       29.93R
DECATUR        SUNNY     72  65  78 SW8       29.96R
EFFINGHAM      SUNNY     73  62  66 CALM      29.98S
FLORA          SUNNY     72  65  79 SW3       29.97F
GALESBURG      MOSUNNY   71  65  82 S8        29.90S
JACKSONVILLE   MOSUNNY   77  70  79 S7        29.93S
LACON          SUNNY     74  65  75 SW8       29.89S
LAWRENCEVILLE  SUNNY     71  66  84 CALM      29.98R
LITCHFIELD     SUNNY     73  69  89 SW3       29.97R
$$


CITY           SKY/WX    TMP DP  RH WIND       PRES   REMARKS
LINCOLN        SUNNY     76  69  79 SW6       29.93S
MACOMB         MOSUNNY   71  66  83 SW6       29.93F
MATTOON        SUNNY     73  62  68 SW8       29.96R
MT CARMEL AP   SUNNY     72  66  83 CALM      29.98R
OLNEY-NOBLE AP SUNNY     70  64  83 CALM      29.98S
PARIS          SUNNY     72  65  79 SW6       29.97S
PEORIA         SUNNY     74  67  78 SW7       29.91S
PONTIAC        SUNNY     74  70  89 SW9       29.91S
RANTOUL        SUNNY     75  67  76 SW8       29.94S
ROBINSON       SUNNY     71  65  80 CALM      29.99R
SPRINGFIELD    MOSUNNY   74  70  87 SW6       29.94S
TAYLORVILLE    MOSUNNY   72  68  88 SW5       29.96R
$$

...REGIONAL REPORTS...


CITY           SKY/WX    TMP DP  RH WIND       PRES   REMARKS
CHICAGO O`HARE MOSUNNY   74  67  78 SW9       29.84F
KANKAKEE       SUNNY     72  67  83 CALM      29.91S
MOLINE         MOSUNNY   73  63  70 W6        29.86F
MOUNT STERLING NOT AVBL
MOUNT VERNON   SUNNY     73  64  73 SW3       29.98S
PITTSFIELD     MOSUNNY   76  69  81 SW6       29.94S
QUINCY         CLOUDY    73  69  87 S9        29.92S
ROCKFORD       MOSUNNY   73  68  84 S8        29.85S
$$


CITY           SKY/WX    TMP DP  RH WIND       PRES   REMARKS
BURLINGTON     PTSUNNY   71  65  81 SW8       29.89S
CEDAR RAPIDS   MOSUNNY   70  67  90 S14       29.82F
DES MOINES     CLOUDY    73  64  73 W7        29.83F
KIRKSVILLE     MOSUNNY   71  63  75 SW8       29.92F
OTTUMWA        CLOUDY    71  65  81 SW9       29.84F
ST LOUIS       MOSUNNY   79  67  66 SW6       29.97R HX  81
$$


CITY           SKY/WX    TMP DP  RH WIND       PRES   REMARKS
TERRE HAUTE    SUNNY     71  64  78 S3        29.98R
EVANSVILLE     SUNNY     74  67  78 SW5       29.99R
INDIANAPOLIS   MOSUNNY   71  60  68 SW7       29.96R
LAFAYETTE      SUNNY     70  63  78 SW3       29.94S
MADISON        PTSUNNY   76  68  76 SW8       29.78R
MILWAUKEE      MOSUNNY   76  68  76 SW12      29.78F
$$




USA.gov is the U.S. government's official web portal to all federal, state and local government web resources and services.